Location: Siracusa
(37.0670°N, 15.3000°E)
Time: 09:41:00
(UTC+02:00)

ISS - Visible Passes

Search period start: 08 May 2021 00:00
Search period end: 18 May 2021 00:00
Orbit: 418 x 421 km, 51.6° (Epoch: 08 May)

Date Brightness Start Highest point End Pass type
(mag) Time Alt. Az. Time Alt. Az. Time Alt. Az.
09 May -0.7 05:16:10 10° N 05:17:52 13° NNE 05:19:33 10° NE visible
10 May -0.3 04:29:44 10° N 04:30:09 10° NNE 04:30:34 10° NNE visible
11 May -1.3 05:17:18 10° NNW 05:20:11 25° NNE 05:23:04 10° E visible
12 May -0.7 04:30:12 10° NNW 04:32:35 18° NNE 04:34:59 10° ENE visible
13 May -0.5 03:43:14 10° N 03:44:56 13° NNE 03:46:39 10° NE visible
13 May -3.4 05:18:53 10° NW 05:22:16 70° NE 05:25:37 10° SE visible
14 May -0.1 02:56:46 10° N 02:57:14 10° NNE 02:57:42 10° NNE visible
14 May -2.3 04:31:34 10° NW 04:34:47 40° NE 04:37:59 10° ESE visible
14 May -3.5 21:13:15 10° SSW 21:16:26 42° SE 21:19:39 10° ENE visible
14 May -1.2 22:50:41 10° W 22:53:22 22° NNW 22:55:40 12° NNE visible
15 May -1.4 03:44:22 10° NNW 03:47:15 25° NNE 03:50:08 10° E visible
15 May -3.0 05:21:00 10° WNW 05:24:05 33° SW 05:27:09 10° SSE visible
15 May -2.6 20:26:23 10° S 20:29:07 23° SE 20:31:52 10° ENE visible
15 May -1.9 22:02:44 10° W 22:05:48 32° NNW 22:08:53 10° NNE visible
16 May -0.8 02:57:15 10° NNW 02:59:40 18° NNE 03:02:03 10° ENE visible
16 May -3.8 04:33:23 10° NW 04:36:44 62° SW 04:40:03 10° SE visible
16 May -3.0 21:15:01 10° WSW 21:18:18 54° NW 21:21:37 10° NE visible
16 May -0.3 22:54:26 10° NW 22:55:44 12° NNW 22:57:01 10° N visible
17 May -0.4 02:10:17 10° N 02:12:00 13° NNE 02:13:43 10° NE visible
17 May -3.6 03:45:56 10° NW 03:49:19 71° NE 03:52:40 10° SE visible
17 May -3.8 20:27:31 10° SW 20:30:51 82° SE 20:34:14 10° NE visible
17 May -0.5 22:05:56 10° WNW 22:08:03 15° NNW 22:10:10 10° NNE visible
